TimeCDT,TemperatureF,Dew PointF,Humidity,Sea Level PressureIn,VisibilityMPH,Wind Direction,Wind SpeedMPH,Gust SpeedMPH,PrecipitationIn,Events,Conditions,WindDirDegrees,DateUTC
12:53 AM,55.9,52.0,87,29.72,10.0,Calm,Calm,-,N/A,,Clear,0,2012-10-18 05:53:00
1:53 AM,53.1,50.0,89,29.72,10.0,Calm,Calm,-,N/A,,Clear,0,2012-10-18 06:53:00
2:53 AM,55.0,51.1,86,29.75,10.0,West,5.8,-,N/A,,Clear,270,2012-10-18 07:53:00
3:53 AM,54.0,50.0,86,29.74,10.0,WNW,4.6,-,N/A,,Clear,290,2012-10-18 08:53:00
4:53 AM,50.0,48.0,93,29.74,10.0,Calm,Calm,-,N/A,,Clear,0,2012-10-18 09:53:00
5:53 AM,52.0,48.9,89,29.77,10.0,Calm,Calm,-,N/A,,Clear,0,2012-10-18 10:53:00
6:53 AM,53.1,48.9,86,29.78,10.0,WSW,5.8,-,N/A,,Clear,250,2012-10-18 11:53:00
7:53 AM,53.1,48.0,83,29.78,10.0,WSW,6.9,-,N/A,,Clear,250,2012-10-18 12:53:00
8:53 AM,55.0,48.9,80,29.80,10.0,SW,10.4,-,N/A,,Clear,230,2012-10-18 13:53:00
9:53 AM,60.1,48.9,67,29.80,10.0,WSW,10.4,-,N/A,,Clear,240,2012-10-18 14:53:00
10:53 AM,63.0,41.0,45,29.81,10.0,West,16.1,-,N/A,,Clear,270,2012-10-18 15:53:00
11:53 AM,64.9,41.0,42,29.79,10.0,West,8.1,16.1,N/A,,Unknown,260,2012-10-18 16:53:00
12:53 PM,66.0,36.0,33,29.77,10.0,West,13.8,20.7,N/A,,Clear,280,2012-10-18 17:53:00
1:53 PM,68.0,33.1,27,29.75,10.0,West,15.0,23.0,N/A,,Clear,270,2012-10-18 18:53:00
2:53 PM,68.0,32.0,26,29.73,10.0,West,20.7,28.8,N/A,,Clear,260,2012-10-18 19:53:00
3:53 PM,66.9,30.0,25,29.73,10.0,WNW,16.1,24.2,N/A,,Clear,300,2012-10-18 20:53:00
4:53 PM,66.9,30.0,25,29.74,10.0,WNW,13.8,20.7,N/A,,Clear,290,2012-10-18 21:53:00
5:53 PM,64.0,30.9,29,29.74,10.0,West,10.4,-,N/A,,Clear,270,2012-10-18 22:53:00
6:53 PM,57.9,35.1,42,29.75,10.0,West,3.5,-,N/A,,Clear,260,2012-10-18 23:53:00
7:53 PM,53.1,39.0,59,29.76,10.0,Calm,Calm,-,N/A,,Clear,0,2012-10-19 00:53:00
8:53 PM,53.1,37.9,57,29.76,10.0,Calm,Calm,-,N/A,,Clear,0,2012-10-19 01:53:00
9:53 PM,53.1,37.0,55,29.76,10.0,WSW,3.5,-,N/A,,Clear,240,2012-10-19 02:53:00
10:53 PM,52.0,37.9,59,29.74,10.0,SW,6.9,-,N/A,,Clear,230,2012-10-19 03:53:00
11:53 PM,55.0,36.0,49,29.73,10.0,SW,12.7,-,N/A,,Overcast,230,2012-10-19 04:53:00